FW4778 Weather Reports


time (UTC)temp
C
wind
direction
speed
KPH
gust
KPH
rain 1hr
cm
rain 24hr
cm
rain mn
cm
humidity
%
barometer
mb
20260507212319 12 43 0.0 0.0 0.00 0.00 0.00 82 1017.0
20260507211242 12 43 0.0 0.0 0.00 0.00 0.00 81 1017.0
20260507210252 12 43 0.0 0.0 0.00 0.00 0.00 81 1017.0
20260507205253 12 43 0.0 0.0 0.00 0.00 0.00 79 1017.0
20260507204229 12 43 0.0 0.0 0.00 0.00 0.00 78 1016.9
20260507203230 12 43 0.0 0.0 0.00 0.00 0.00 78 1016.9
20260507202249 12 43 0.0 0.0 0.00 0.00 0.00 77 1016.9
20260507201259 12 43 0.0 0.0 0.00 0.00 0.00 75 1016.9
20260507200238 12 43 0.0 0.0 0.00 0.00 0.00 73 1016.7
20260507195238 12 43 0.0 1.6 0.00 0.00 0.00 73 1016.7
20260507194246 13 43 0.0 3.2 0.00 0.00 0.00 72 1016.5
20260507193240 13 44 0.0 1.6 0.00 0.00 0.00 72 1016.4
20260507192253 13 39 0.0 3.2 0.00 0.00 0.00 71 1016.4
20260507191305 13 39 1.6 4.8 0.00 0.00 0.00 71 1016.3
20260507190257 13 17 1.6 3.2 0.00 0.00 0.00 70 1016.3
20260507185248 13 17 1.6 4.8 0.00 0.00 0.00 69 1016.3
20260507184228 13 44 0.0 3.2 0.00 0.00 0.00 69 1016.2
20260507183228 14 38 1.6 6.4 0.00 0.00 0.00 68 1016.2
20260507182252 14 17 3.2 8.0 0.00 0.00 0.00 68 1016.3
20260507181236 14 355 4.8 8.0 0.00 0.00 0.00 68 1016.3
20260507180236 14 34 4.8 6.4 0.00 0.00 0.00 67 1016.3
20260507175307 14 339 3.2 6.4 0.00 0.00 0.00 67 1016.3
20260507174227 14 40 1.6 6.4 0.00 0.00 0.00 67 1016.3
20260507173227 15 48 3.2 8.0 0.00 0.00 0.00 65 1016.2
20260507172248 15 37 3.2 6.4 0.00 0.00 0.00 66 1016.2
20260507171232 15 355 4.8 9.7 0.00 0.00 0.00 66 1016.2
20260507170229 15 34 6.4 9.7 0.00 0.00 0.00 65 1016.3
20260507165240 15 71 3.2 8.0 0.00 0.00 0.00 65 1016.2
20260507164239 15 27 3.2 8.0 0.00 0.00 0.00 65 1016.3
20260507163236 15 30 3.2 12.9 0.00 0.00 0.00 64 1016.2
20260507162257 15 30 1.6 8.0 0.00 0.00 0.00 64 1016.2
20260507161242 15 15 6.4 9.7 0.00 0.00 0.00 63 1016.3
20260507160245 15 42 4.8 9.7 0.00 0.00 0.00 64 1016.3
20260507155252 15 360 4.8 9.7 0.00 0.00 0.00 64 1016.2
20260507154231 15 24 1.6 9.7 0.00 0.00 0.00 65 1016.2
20260507153231 15 29 4.8 12.9 0.00 0.00 0.00 64 1016.1
20260507152313 15 5 4.8 9.7 0.00 0.00 0.00 64 1016.2
20260507151235 15 11 6.4 9.7 0.00 0.00 0.00 64 1016.3
20260507150259 15 30 6.4 9.7 0.00 0.00 0.00 63 1016.2
20260507145301 15 9 6.4 9.7 0.00 0.00 0.00 62 1016.1
20260507144246 15 16 3.2 12.9 0.00 0.00 0.00 64 1016.2
20260507143246 15 51 4.8 14.5 0.00 0.00 0.00 63 1016.2
20260507142308 15 24 4.8 11.3 0.00 0.00 0.00 62 1016.2
20260507141253 15 26 4.8 11.3 0.00 0.00 0.00 61 1016.3
20260507140234 15 5 3.2 8.0 0.00 0.00 0.00 62 1016.3
20260507135234 15 336 3.2 9.7 0.00 0.00 0.00 63 1016.4
20260507134234 15 355 4.8 8.0 0.00 0.00 0.00 62 1016.4
20260507133305 15 5 3.2 8.0 0.00 0.00 0.00 62 1016.4
20260507132307 15 350 3.2 12.9 0.00 0.00 0.00 64 1016.4
20260507131229 15 355 6.4 14.5 0.00 0.00 0.00 62 1016.4
20260507130232 16 42 6.4 14.5 0.00 0.00 0.00 64 1016.4
20260507125228 16 338 6.4 14.5 0.00 0.00 0.00 63 1016.4
20260507124240 16 351 6.4 14.5 0.00 0.00 0.00 62 1016.3
20260507123240 16 294 4.8 8.0 0.00 0.00 0.00 60 1016.3
20260507122248 16 333 1.6 6.4 0.00 0.00 0.00 57 1016.4
20260507121241 16 30 3.2 8.0 0.00 0.00 0.00 58 1016.3
20260507120242 16 24 1.6 8.0 0.00 0.00 0.00 62 1016.2
20260507115243 16 346 1.6 4.8 0.00 0.00 0.00 57 1016.2
20260507114250 16 44 4.8 8.0 0.00 0.00 0.00 61 1016.2
20260507113228 15 97 0.0 4.8 0.00 0.00 0.00 59 1016.3
20260507112300 15 55 1.6 3.2 0.00 0.00 0.00 61 1016.4
20260507111253 16 97 1.6 12.9 0.00 0.00 0.00 62 1016.4
20260507110232 17 18 3.2 12.9 0.00 0.00 0.00 57 1016.5
20260507105232 17 30 4.8 9.7 0.00 0.00 0.00 60 1016.3
20260507104242 15 131 3.2 12.9 0.00 0.00 0.00 63 1016.3
20260507103241 16 36 4.8 9.7 0.00 0.00 0.00 65 1016.3
20260507102307 16 120 3.2 8.0 0.00 0.00 0.00 64 1016.4
20260507101244 16 70 0.0 6.4 0.00 0.00 0.00 65 1016.4
20260507100246 16 67 1.6 9.7 0.00 0.00 0.00 65 1016.3
20260507095252 15 350 3.2 6.4 0.00 0.00 0.00 69 1016.2
20260507094229 15 94 4.8 9.7 0.00 0.00 0.00 71 1016.2
20260507093229 15 91 1.6 4.8 0.00 0.00 0.00 71 1016.2
20260507092252 15 78 3.2 8.0 0.00 0.00 0.00 73 1016.2
20260507091235 14 32 4.8 8.0 0.00 0.00 0.00 72 1016.2
20260507090235 13 75 3.2 8.0 0.00 0.00 0.00 72 1016.2
20260507085245 13 19 3.2 8.0 0.00 0.00 0.00 71 1016.1
20260507084245 13 97 1.6 4.8 0.00 0.00 0.00 73 1016.1
20260507083312 12 31 4.8 9.7 0.00 0.00 0.00 77 1016.1
20260507082243 12 15 4.8 9.7 0.00 0.00 0.00 78 1016.1
20260507081313 12 26 4.8 12.9 0.00 0.00 0.00 78 1016.1
20260507080253 12 355 4.8 8.0 0.00 0.00 0.00 78 1015.9
20260507075229 12 9 3.2 6.4 0.00 0.10 0.00 81 1015.9
20260507074238 12 30 1.6 6.4 0.00 0.10 0.00 83 1015.8
20260507073237 11 46 3.2 6.4 0.00 0.10 0.00 84 1015.8
20260507072256 11 34 4.8 8.0 0.00 0.10 0.00 85 1015.6
20260507071230 11 41 1.6 6.4 0.00 0.10 0.00 86 1015.6
20260507070255 11 19 4.8 8.0 0.00 0.10 0.00 86 1015.6
20260507065231 10 5 3.2 9.7 0.00 0.10 0.00 87 1015.5
20260507064230 10 19 6.4 9.7 0.00 0.10 0.00 87 1015.5
20260507063230 10 26 4.8 8.0 0.00 0.10 0.00 87 1015.5
20260507062246 10 36 1.6 6.4 0.00 0.10 0.00 87 1015.5
20260507061226 10 15 3.2 9.7 0.00 0.10 0.00 88 1015.4
20260507060255 10 5 4.8 8.0 0.00 0.10 0.00 89 1015.4
20260507055251 10 33 4.8 6.4 0.00 0.10 0.00 89 1015.3
20260507054228 10 32 4.8 6.4 0.00 0.10 0.00 90 1015.0
20260507053238 10 15 3.2 6.4 0.00 0.10 0.00 91 1015.1
20260507052249 10 12 1.6 4.8 0.00 0.10 0.00 91 1015.0
20260507051239 10 20 0.0 3.2 0.00 0.10 0.00 91 1014.8
20260507050240 9 20 0.0 0.0 0.00 0.10 0.00 91 1014.8
20260507045239 9 20 0.0 0.0 0.00 0.10 0.00 91 1014.7
20260507044238 10 20 0.0 1.6 0.00 0.10 0.00 91 1014.6
20260507043247 10 20 0.0 1.6 0.00 0.10 0.00 91 1014.5
20260507042259 10 20 0.0 1.6 0.00 0.10 0.00 90 1014.4
20260507041239 10 20 0.0 3.2 0.00 0.10 0.00 90 1014.4
20260507040251 10 20 0.0 1.6 0.00 0.10 0.00 90 1014.3
20260507035228 10 20 0.0 1.6 0.00 0.10 0.00 90 1014.2
20260507034258 10 20 0.0 1.6 0.00 0.10 0.00 89 1014.1
20260507033239 10 20 0.0 0.0 0.00 0.10 0.00 89 1014.1
20260507032259 10 20 0.0 0.0 0.00 0.10 0.00 89 1014.1
20260507031244 10 20 0.0 0.0 0.00 0.10 0.00 89 1014.1
20260507030314 10 20 0.0 0.0 0.00 0.10 0.00 88 1014.0
20260507025254 10 20 0.0 1.6 0.00 0.10 0.00 88 1014.0
20260507024235 10 20 0.0 1.6 0.00 0.10 0.00 88 1013.9
20260507023242 10 20 0.0 1.6 0.00 0.10 0.00 87 1013.9
20260507022252 10 20 0.0 0.0 0.00 0.10 0.00 88 1013.9
20260507021236 10 20 0.0 0.0 0.00 0.10 0.00 87 1013.8
20260507020244 10 20 0.0 1.6 0.00 0.10 0.00 87 1013.8
20260507015245 10 20 0.0 1.6 0.00 0.10 0.00 87 1013.7
20260507014244 10 20 0.0 1.6 0.00 0.10 0.00 86 1013.6
20260507013253 10 20 0.0 1.6 0.00 0.10 0.00 85 1013.7
20260507012245 10 20 0.0 1.6 0.00 0.10 0.00 85 1013.7
20260507011229 10 20 0.0 0.0 0.00 0.10 0.00 84 1013.6
20260507010231 10 20 0.0 0.0 0.00 0.10 0.00 83 1013.6
20260507005300 10 20 0.0 1.6 0.00 0.10 0.00 82 1013.5
20260507004240 10 20 0.0 1.6 0.00 0.10 0.00 82 1013.7
20260507003251 10 20 0.0 1.6 0.00 0.10 0.00 81 1013.7
20260507002244 10 20 0.0 0.0 0.00 0.10 0.00 79 1013.5
20260507001228 10 20 0.0 3.2 0.00 0.10 0.00 79 1013.4
20260507000236 10 355 1.6 4.8 0.00 0.10 0.00 79 1013.5
20260506235234 10 360 1.6 3.2 0.00 0.10 0.00 79 1013.3
20260506234234 10 360 0.0 3.2 0.00 0.10 0.00 78 1013.4
20260506233229 10 360 0.0 3.2 0.00 0.10 0.00 78 1013.3
20260506232309 10 360 0.0 3.2 0.00 0.10 0.00 78 1013.2
20260506231230 10 355 1.6 4.8 0.00 0.10 0.00 78 1013.2
20260506230232 11 360 1.6 3.2 0.00 0.10 0.00 77 1013.1
20260506225232 11 20 0.0 1.6 0.00 0.10 0.00 77 1012.9
20260506224302 11 20 1.6 6.4 0.00 0.10 0.00 77 1012.9
20260506223240 11 14 1.6 4.8 0.00 0.10 0.00 77 1012.8
20260506222305 11 340 1.6 4.8 0.00 0.10 0.00 78 1012.9
20260506221302 11 13 3.2 4.8 0.00 0.10 0.00 78 1012.7
20260506220251 11 360 1.6 6.4 0.00 0.10 0.00 77 1012.8
20260506215230 11 26 1.6 4.8 0.00 0.10 0.03 77 1012.7
20260506214232 11 30 1.6 4.8 0.00 0.10 0.03 77 1012.7
20260506213303 11 36 1.6 6.4 0.00 0.10 0.03 77 1012.7